Regional Weather Roundup
Issued by NWS Glasgow, MT

Home | Current Version | Previous Version | Text Only | Print | Product List | Glossary On
Versions: 1 2 3 4 5 6 7 8 9 10 11 12 13 14 15 16 17 18 19 20 21 22 23 24 25 26 27 28
000
ASUS45 KGGW 160415
RWRGGW
HOURLY WEATHER ROUNDUP FOR NORTHEAST MONTANA
NATIONAL WEATHER SERVICE GLASGOW MONTANA
1000 PM MDT TUE APR 15 2014

NOTE: "FAIR" INDICATES FEW OR NO CLOUDS BELOW 12,000 FEET WITH NO
SIGNIFICANT WEATHER AND/OR OBSTRUCTIONS TO VISISBILITY.

NORTHEAST MONTANA


CITY           SKY/WX    TMP DP  RH WIND       PRES   REMARKS
GLASGOW        MOCLDY    39  21  48 N12       29.68R
PLENTYWOOD       N/A     33  22  63 NE16        N/A
WOLF POINT     CLOUDY    41  21  44 E12       29.66R
JORDAN           N/A     40  22  48 N8        29.66R
WINNETT          N/A     46  30  53 NW8         N/A
SIDNEY         CLOUDY    43  21  42 NE8       29.67R
GLENDIVE       CLOUDY    45  23  42 N14       29.61R

FORT PECK REPORTS


CITY           SKY/WX    TMP DP  RH WIND       PRES   REMARKS
FORT PECK        N/A     43  22  43 NE12        N/A
THE PINES        N/A     43  22  43 N3          N/A

SOUTHEAST MONTANA


CITY           SKY/WX    TMP DP  RH WIND       PRES   REMARKS
BILLINGS       CLOUDY    42  32  67 NW21      29.75R
MILES CITY     CLOUDY    50  30  46 W14       29.62R
BAKER          CLOUDY    48  28  46 CALM      29.60S
LIVINGSTON     CLOUDY    38  38 100 SW16      29.84R

CENTRAL MONTANA


CITY           SKY/WX    TMP DP  RH WIND       PRES   REMARKS
HAVRE          MOCLDY    42  21  43 N12       29.79R
LEWISTOWN      CLOUDY    36  32  85 NW15G28   29.78R
GREAT FALLS    CLOUDY    39  33  79 NW9       29.84R
CUT BANK       LGT SNOW  33  32  96 N9        29.85R FOG
HELENA         CLOUDY    42  26  53 W22G32    29.86R
BUTTE          CLOUDY    34  22  61 NW13G24   29.92R
BOZEMAN        CLOUDY    40  24  53 W14G22    29.89R

WESTERN MONTANA


CITY           SKY/WX    TMP DP  RH WIND       PRES   REMARKS
MISSOULA       MOCLDY    41  30  65 NW5       29.96R
KALISPELL      NOT AVBL

NORTH DAKOTA


CITY           SKY/WX    TMP DP  RH WIND       PRES   REMARKS
WILLISTON      CLOUDY    38  28  67 SE26      29.72R
DICKINSON      MOCLDY    36  21  54 SE18      29.61R
MINOT          LGT SNOW  26  22  84 E18G26    29.84R FOG
BISMARCK       CLOUDY    30  18  60 E22G28    29.77S

SOUTHERN SASKATCHEWAN


CITY           SKY/WX    TMP DP  RH WIND       PRES   REMARKS
REGINA         PTCLDY    25  21  86 E18G30    29.89R
ESTEVAN        LGT SNOW  27  23  86 E21G26    29.84R
SWIFT CURRENT  MOCLDY    27  25  93 E18G24    29.82R




USA.gov is the U.S. government's official web portal to all federal, state and local government web resources and services.